| time (UTC) | temp C | wind direction | speed KPH | gust KPH | rain 1hr cm | rain 24hr cm | rain mn cm | humidity % | barometer mb |
| 20260503054917 | 5 | 0 | 0.0 | 0.0 | 0.00 | 0.00 | 0.00 | 96 | 1015.2 |
| 20260503054417 | 5 | 0 | 0.0 | 0.0 | 0.00 | 0.00 | 0.00 | 96 | 1015.2 |
| 20260503053917 | 6 | 0 | 0.0 | 0.0 | 0.00 | 0.00 | 0.00 | 96 | 1015.3 |
| 20260503053417 | 6 | 0 | 0.0 | 0.0 | 0.00 | 0.00 | 0.00 | 96 | 1015.3 |
| 20260503052917 | 6 | 0 | 0.0 | 0.0 | 0.00 | 0.00 | 0.00 | 96 | 1015.3 |
| 20260503052417 | 6 | 0 | 0.0 | 0.0 | 0.00 | 0.00 | 0.00 | 96 | 1015.2 |
| 20260503051917 | 6 | 0 | 0.0 | 0.0 | 0.00 | 0.00 | 0.00 | 96 | 1015.2 |
| 20260503051417 | 6 | 0 | 0.0 | 0.0 | 0.00 | 0.00 | 0.00 | 96 | 1015.1 |
| 20260503050917 | 6 | 0 | 0.0 | 0.0 | 0.00 | 0.00 | 0.00 | 96 | 1015.1 |
| 20260503050417 | 6 | 12 | 0.0 | 1.6 | 0.00 | 0.00 | 0.00 | 96 | 1015.1 |
| 20260503045444 | 6 | 0 | 0.0 | 0.0 | 0.00 | 0.00 | 0.00 | 96 | 1015.2 |
| 20260503044917 | 6 | 38 | 0.0 | 1.6 | 0.00 | 0.00 | 0.00 | 96 | 1015.2 |
| 20260503044417 | 6 | 0 | 0.0 | 0.0 | 0.00 | 0.00 | 0.00 | 96 | 1015.2 |
| 20260503043917 | 6 | 0 | 0.0 | 0.0 | 0.00 | 0.00 | 0.00 | 96 | 1015.2 |
| 20260503043417 | 7 | 0 | 0.0 | 0.0 | 0.00 | 0.00 | 0.00 | 96 | 1015.2 |
| 20260503042917 | 7 | 0 | 0.0 | 0.0 | 0.00 | 0.00 | 0.00 | 96 | 1015.2 |
| 20260503042417 | 7 | 0 | 0.0 | 0.0 | 0.00 | 0.00 | 0.00 | 96 | 1015.2 |
| 20260503041917 | 7 | 0 | 0.0 | 0.0 | 0.00 | 0.00 | 0.00 | 96 | 1015.1 |
| 20260503041417 | 7 | 0 | 0.0 | 0.0 | 0.00 | 0.00 | 0.00 | 96 | 1015.1 |
| 20260503040918 | 7 | 0 | 0.0 | 0.0 | 0.00 | 0.00 | 0.00 | 96 | 1015.0 |
| 20260503040417 | 7 | 0 | 0.0 | 0.0 | 0.00 | 0.00 | 0.00 | 96 | 1015.0 |
| 20260503035917 | 7 | 0 | 0.0 | 0.0 | 0.00 | 0.00 | 0.43 | 96 | 1015.0 |
| 20260503035417 | 7 | 0 | 0.0 | 0.0 | 0.00 | 0.00 | 0.43 | 96 | 1015.0 |
| 20260503034919 | 7 | 0 | 0.0 | 0.0 | 0.00 | 0.00 | 0.43 | 96 | 1014.9 |
| 20260503034417 | 7 | 0 | 0.0 | 0.0 | 0.00 | 0.00 | 0.43 | 96 | 1014.8 |
| 20260503033919 | 7 | 0 | 0.0 | 0.0 | 0.00 | 0.00 | 0.43 | 96 | 1014.8 |
| 20260503033417 | 7 | 0 | 0.0 | 0.0 | 0.00 | 0.00 | 0.43 | 96 | 1014.8 |
| 20260503032917 | 7 | 20 | 0.0 | 0.0 | 0.00 | 0.00 | 0.43 | 96 | 1014.9 |
| 20260503032417 | 7 | 0 | 0.0 | 0.0 | 0.00 | 0.00 | 0.43 | 95 | 1014.8 |
| 20260503031927 | 7 | 0 | 0.0 | 0.0 | 0.00 | 0.00 | 0.43 | 96 | 1014.7 |
| 20260503031418 | 7 | 0 | 0.0 | 0.0 | 0.00 | 0.00 | 0.43 | 95 | 1014.7 |
| 20260503030917 | 7 | 0 | 0.0 | 0.0 | 0.00 | 0.00 | 0.43 | 95 | 1014.7 |
| 20260503030418 | 8 | 0 | 0.0 | 0.0 | 0.00 | 0.00 | 0.43 | 95 | 1014.6 |
| 20260503025917 | 8 | 0 | 0.0 | 0.0 | 0.00 | 0.00 | 0.43 | 95 | 1014.4 |
| 20260503025417 | 8 | 0 | 0.0 | 0.0 | 0.00 | 0.00 | 0.43 | 95 | 1014.5 |
| 20260503024920 | 8 | 0 | 0.0 | 0.0 | 0.00 | 0.00 | 0.43 | 95 | 1014.5 |
| 20260503024417 | 8 | 0 | 0.0 | 0.0 | 0.00 | 0.00 | 0.43 | 95 | 1014.5 |
| 20260503023917 | 8 | 0 | 0.0 | 0.0 | 0.00 | 0.00 | 0.43 | 95 | 1014.4 |
| 20260503023418 | 8 | 0 | 0.0 | 0.0 | 0.00 | 0.00 | 0.43 | 95 | 1014.3 |
| 20260503022920 | 8 | 0 | 0.0 | 0.0 | 0.00 | 0.00 | 0.43 | 95 | 1014.3 |
| 20260503022419 | 8 | 35 | 0.0 | 0.0 | 0.00 | 0.00 | 0.43 | 95 | 1014.2 |
| 20260503021918 | 8 | 0 | 0.0 | 0.0 | 0.00 | 0.00 | 0.43 | 95 | 1014.2 |
| 20260503021418 | 8 | 0 | 0.0 | 0.0 | 0.00 | 0.00 | 0.43 | 95 | 1014.0 |
| 20260503020921 | 8 | 0 | 0.0 | 0.0 | 0.00 | 0.00 | 0.43 | 95 | 1014.0 |
| 20260503020418 | 8 | 0 | 0.0 | 0.0 | 0.00 | 0.00 | 0.43 | 95 | 1013.9 |
| 20260503015921 | 8 | 0 | 0.0 | 0.0 | 0.00 | 0.00 | 0.43 | 95 | 1014.0 |
| 20260503015418 | 8 | 0 | 0.0 | 0.0 | 0.00 | 0.00 | 0.43 | 95 | 1013.9 |
| 20260503014918 | 8 | 63 | 0.0 | 0.0 | 0.00 | 0.00 | 0.43 | 95 | 1014.2 |
| 20260503014417 | 9 | 0 | 0.0 | 0.0 | 0.00 | 0.00 | 0.43 | 95 | 1014.3 |
| 20260503013917 | 9 | 0 | 0.0 | 0.0 | 0.00 | 0.00 | 0.43 | 95 | 1014.2 |
| 20260503013417 | 9 | 0 | 0.0 | 0.0 | 0.00 | 0.00 | 0.43 | 95 | 1014.2 |
| 20260503012918 | 9 | 0 | 0.0 | 0.0 | 0.00 | 0.00 | 0.43 | 95 | 1014.0 |
| 20260503012418 | 9 | 38 | 0.0 | 1.6 | 0.00 | 0.00 | 0.43 | 95 | 1013.9 |
| 20260503011917 | 9 | 0 | 0.0 | 0.0 | 0.00 | 0.00 | 0.43 | 94 | 1013.9 |
| 20260503011419 | 10 | 0 | 0.0 | 0.0 | 0.00 | 0.00 | 0.43 | 94 | 1013.8 |
| 20260503010917 | 10 | 32 | 1.6 | 1.6 | 0.00 | 0.00 | 0.43 | 94 | 1013.7 |
| 20260503010420 | 10 | 56 | 1.6 | 1.6 | 0.00 | 0.00 | 0.43 | 94 | 1013.6 |
| 20260503005919 | 10 | 0 | 0.0 | 0.0 | 0.00 | 0.00 | 0.43 | 94 | 1013.5 |
| 20260503005417 | 10 | 0 | 0.0 | 0.0 | 0.00 | 0.00 | 0.43 | 94 | 1013.4 |
| 20260503004917 | 10 | 0 | 0.0 | 0.0 | 0.00 | 0.00 | 0.43 | 94 | 1013.4 |
| 20260503004417 | 10 | 0 | 0.0 | 0.0 | 0.00 | 0.00 | 0.43 | 93 | 1013.3 |
| 20260503003918 | 10 | 0 | 0.0 | 0.0 | 0.00 | 0.00 | 0.43 | 93 | 1013.2 |
| 20260503003418 | 10 | 0 | 0.0 | 0.0 | 0.00 | 0.00 | 0.43 | 93 | 1013.1 |
| 20260503002926 | 10 | 0 | 0.0 | 0.0 | 0.00 | 0.00 | 0.43 | 92 | 1013.0 |
| 20260503002418 | 11 | 0 | 0.0 | 0.0 | 0.00 | 0.00 | 0.43 | 92 | 1013.0 |
| 20260503001917 | 11 | 35 | 0.0 | 1.6 | 0.00 | 0.00 | 0.43 | 91 | 1012.9 |
| 20260503001418 | 11 | 0 | 0.0 | 0.0 | 0.00 | 0.00 | 0.43 | 91 | 1012.8 |
| 20260503000917 | 11 | 0 | 0.0 | 0.0 | 0.00 | 0.00 | 0.43 | 90 | 1012.7 |
| 20260503000417 | 11 | 0 | 0.0 | 0.0 | 0.00 | 0.00 | 0.43 | 90 | 1012.7 |
| 20260502235917 | 11 | 0 | 0.0 | 0.0 | 0.00 | 0.00 | 0.43 | 89 | 1012.7 |
| 20260502235420 | 12 | 0 | 0.0 | 0.0 | 0.00 | 0.00 | 0.43 | 89 | 1012.6 |
| 20260502234919 | 12 | 0 | 0.0 | 0.0 | 0.00 | 0.00 | 0.43 | 89 | 1012.5 |
| 20260502234417 | 12 | 0 | 0.0 | 0.0 | 0.00 | 0.00 | 0.43 | 88 | 1012.4 |
| 20260502233917 | 12 | 0 | 0.0 | 0.0 | 0.00 | 0.00 | 0.43 | 89 | 1012.3 |
| 20260502233417 | 12 | 8 | 0.0 | 0.0 | 0.00 | 0.00 | 0.43 | 89 | 1012.1 |
| 20260502232918 | 12 | 0 | 0.0 | 0.0 | 0.00 | 0.00 | 0.43 | 89 | 1012.2 |
| 20260502232418 | 12 | 0 | 0.0 | 0.0 | 0.00 | 0.00 | 0.43 | 89 | 1012.2 |
| 20260502231917 | 12 | 0 | 0.0 | 0.0 | 0.00 | 0.00 | 0.43 | 89 | 1012.3 |
| 20260502231417 | 12 | 0 | 0.0 | 0.0 | 0.00 | 0.00 | 0.43 | 89 | 1012.2 |
| 20260502230917 | 12 | 0 | 0.0 | 0.0 | 0.00 | 0.00 | 0.43 | 89 | 1012.2 |
| 20260502230417 | 12 | 0 | 0.0 | 0.0 | 0.00 | 0.00 | 0.43 | 89 | 1012.2 |
| 20260502225917 | 12 | 0 | 0.0 | 0.0 | 0.00 | 0.00 | 0.43 | 88 | 1012.1 |
| 20260502225417 | 12 | 0 | 0.0 | 0.0 | 0.00 | 0.00 | 0.43 | 89 | 1012.1 |
| 20260502224917 | 12 | 0 | 0.0 | 0.0 | 0.00 | 0.00 | 0.43 | 88 | 1012.1 |
| 20260502224417 | 12 | 0 | 0.0 | 0.0 | 0.00 | 0.00 | 0.43 | 88 | 1012.0 |
| 20260502223917 | 12 | 0 | 0.0 | 0.0 | 0.00 | 0.00 | 0.43 | 87 | 1012.0 |
| 20260502223418 | 12 | 0 | 0.0 | 0.0 | 0.00 | 0.00 | 0.43 | 87 | 1012.1 |
| 20260502222918 | 12 | 0 | 0.0 | 0.0 | 0.00 | 0.00 | 0.43 | 88 | 1012.1 |
| 20260502222417 | 12 | 0 | 0.0 | 0.0 | 0.00 | 0.00 | 0.43 | 88 | 1012.1 |
| 20260502221917 | 12 | 0 | 0.0 | 0.0 | 0.00 | 0.00 | 0.43 | 87 | 1012.0 |
| 20260502221417 | 12 | 0 | 0.0 | 0.0 | 0.00 | 0.00 | 0.43 | 86 | 1012.0 |
| 20260502220917 | 12 | 0 | 0.0 | 0.0 | 0.00 | 0.00 | 0.43 | 86 | 1012.0 |
| 20260502220417 | 12 | 0 | 0.0 | 0.0 | 0.00 | 0.00 | 0.43 | 86 | 1012.1 |
| 20260502215917 | 12 | 3 | 0.0 | 1.6 | 0.00 | 0.00 | 0.43 | 85 | 1011.9 |
| 20260502215418 | 12 | 37 | 0.0 | 0.0 | 0.00 | 0.00 | 0.43 | 85 | 1011.8 |
| 20260502214917 | 13 | 0 | 0.0 | 0.0 | 0.00 | 0.00 | 0.43 | 86 | 1011.8 |
| 20260502214417 | 13 | 0 | 0.0 | 0.0 | 0.00 | 0.00 | 0.43 | 86 | 1011.8 |
| 20260502213917 | 13 | 0 | 0.0 | 0.0 | 0.00 | 0.00 | 0.43 | 87 | 1011.8 |
| 20260502213417 | 12 | 0 | 0.0 | 0.0 | 0.00 | 0.00 | 0.43 | 86 | 1011.8 |
| 20260502212917 | 12 | 0 | 0.0 | 0.0 | 0.00 | 0.00 | 0.43 | 86 | 1011.7 |
| 20260502212417 | 12 | 49 | 0.0 | 3.2 | 0.00 | 0.00 | 0.43 | 87 | 1011.8 |
| 20260502211917 | 12 | 0 | 0.0 | 0.0 | 0.00 | 0.00 | 0.43 | 87 | 1011.8 |
| 20260502211417 | 12 | 0 | 0.0 | 0.0 | 0.00 | 0.00 | 0.43 | 86 | 1011.9 |
| 20260502210917 | 12 | 44 | 0.0 | 1.6 | 0.00 | 0.00 | 0.43 | 85 | 1011.8 |
| 20260502210417 | 13 | 44 | 1.6 | 3.2 | 0.00 | 0.00 | 0.43 | 84 | 1011.7 |
| 20260502205917 | 13 | 0 | 0.0 | 0.0 | 0.00 | 0.00 | 0.43 | 84 | 1011.7 |
| 20260502205417 | 13 | 0 | 0.0 | 0.0 | 0.00 | 0.00 | 0.43 | 82 | 1011.7 |
| 20260502204917 | 13 | 0 | 0.0 | 0.0 | 0.00 | 0.00 | 0.43 | 80 | 1011.8 |
| 20260502204417 | 13 | 286 | 0.0 | 3.2 | 0.00 | 0.00 | 0.43 | 76 | 1011.7 |
| 20260502203917 | 13 | 41 | 1.6 | 4.8 | 0.00 | 0.00 | 0.43 | 76 | 1011.8 |
| 20260502203418 | 13 | 0 | 0.0 | 0.0 | 0.00 | 0.00 | 0.43 | 78 | 1011.8 |
| 20260502202918 | 13 | 0 | 0.0 | 0.0 | 0.00 | 0.00 | 0.43 | 82 | 1011.8 |
| 20260502202417 | 13 | 0 | 0.0 | 0.0 | 0.00 | 0.00 | 0.43 | 80 | 1011.9 |
| 20260502201918 | 13 | 292 | 0.0 | 3.2 | 0.00 | 0.00 | 0.43 | 77 | 1011.9 |
| 20260502201417 | 13 | 350 | 1.6 | 3.2 | 0.00 | 0.00 | 0.43 | 81 | 1011.8 |
| 20260502200918 | 13 | 50 | 0.0 | 3.2 | 0.00 | 0.00 | 0.43 | 80 | 1011.8 |
| 20260502200417 | 13 | 0 | 0.0 | 0.0 | 0.00 | 0.00 | 0.43 | 80 | 1011.8 |
| 20260502195918 | 13 | 0 | 0.0 | 0.0 | 0.00 | 0.00 | 0.43 | 79 | 1011.8 |
| 20260502195417 | 13 | 0 | 0.0 | 0.0 | 0.00 | 0.00 | 0.43 | 80 | 1011.8 |
| 20260502194917 | 13 | 60 | 1.6 | 3.2 | 0.00 | 0.00 | 0.43 | 83 | 1011.9 |
| 20260502194417 | 13 | 58 | 3.2 | 6.4 | 0.00 | 0.00 | 0.43 | 81 | 1011.9 |
| 20260502193917 | 13 | 59 | 1.6 | 3.2 | 0.00 | 0.00 | 0.43 | 83 | 1011.9 |
| 20260502193421 | 13 | 259 | 0.0 | 0.0 | 0.00 | 0.00 | 0.43 | 80 | 1012.0 |
| 20260502192920 | 13 | 48 | 1.6 | 3.2 | 0.00 | 0.00 | 0.43 | 82 | 1012.1 |
| 20260502192417 | 13 | 51 | 0.0 | 1.6 | 0.00 | 0.00 | 0.43 | 82 | 1012.2 |
| 20260502191917 | 13 | 68 | 0.0 | 0.0 | 0.00 | 0.00 | 0.43 | 81 | 1012.3 |
| 20260502191417 | 13 | 284 | 0.0 | 1.6 | 0.00 | 0.00 | 0.43 | 82 | 1012.4 |
| 20260502190917 | 13 | 280 | 1.6 | 3.2 | 0.00 | 0.00 | 0.43 | 85 | 1012.4 |
| 20260502190418 | 13 | 0 | 0.0 | 0.0 | 0.00 | 0.00 | 0.43 | 83 | 1012.3 |
| 20260502185917 | 13 | 25 | 1.6 | 3.2 | 0.00 | 0.00 | 0.43 | 82 | 1012.3 |
| 20260502185418 | 13 | 294 | 0.0 | 1.6 | 0.00 | 0.00 | 0.43 | 82 | 1012.4 |
| 20260502184918 | 13 | 54 | 1.6 | 3.2 | 0.00 | 0.00 | 0.43 | 81 | 1012.4 |
| 20260502184417 | 13 | 54 | 1.6 | 3.2 | 0.00 | 0.00 | 0.43 | 85 | 1012.5 |
| 20260502183917 | 12 | 0 | 0.0 | 0.0 | 0.00 | 0.00 | 0.43 | 84 | 1012.5 |
| 20260502183417 | 12 | 274 | 1.6 | 3.2 | 0.00 | 0.00 | 0.43 | 82 | 1012.5 |
| 20260502182918 | 12 | 287 | 1.6 | 3.2 | 0.00 | 0.00 | 0.43 | 82 | 1012.6 |
| 20260502182418 | 13 | 151 | 0.0 | 0.0 | 0.00 | 0.00 | 0.43 | 87 | 1012.7 |
| 20260502181917 | 12 | 255 | 0.0 | 0.0 | 0.00 | 0.00 | 0.43 | 84 | 1012.6 |
| 20260502181417 | 12 | 43 | 0.0 | 1.6 | 0.00 | 0.00 | 0.43 | 87 | 1012.6 |
| 20260502180918 | 12 | 279 | 0.0 | 1.6 | 0.00 | 0.00 | 0.43 | 88 | 1012.8 |
| 20260502180417 | 12 | 252 | 0.0 | 3.2 | 0.00 | 0.00 | 0.43 | 87 | 1012.9 |
| 20260502170417 | 11 | 60 | 0.0 | 0.0 | 0.00 | 0.00 | 0.43 | 91 | 1012.9 |
| 20260502163919 | 11 | 273 | 4.8 | 6.4 | 0.00 | 0.00 | 0.43 | 90 | 1013.4 |
| 20260502163420 | 11 | 284 | 1.6 | 8.0 | 0.00 | 0.00 | 0.41 | 90 | 1013.4 |
| 20260502162918 | 11 | 338 | 1.6 | 3.2 | 0.00 | 0.00 | 0.41 | 90 | 1013.6 |
| 20260502162418 | 12 | 0 | 0.0 | 0.0 | 0.00 | 0.00 | 0.41 | 90 | 1013.8 |
| 20260502161917 | 12 | 258 | 1.6 | 3.2 | 0.00 | 0.00 | 0.46 | 91 | 1013.7 |
| 20260502161418 | 12 | 0 | 0.0 | 0.0 | 0.00 | 0.00 | 0.46 | 91 | 1013.8 |
| 20260502160917 | 11 | 45 | 1.6 | 3.2 | 0.00 | 0.00 | 0.46 | 91 | 1013.9 |
| 20260502160418 | 11 | 0 | 0.0 | 0.0 | 0.00 | 0.00 | 0.43 | 91 | 1014.0 |
| 20260502151917 | 11 | 0 | 0.0 | 0.0 | 0.00 | 0.00 | 0.36 | 91 | 1013.8 |
| 20260502151421 | 11 | 66 | 1.6 | 3.2 | 0.00 | 0.00 | 0.36 | 91 | 1013.7 |
| 20260502150918 | 11 | 48 | 0.0 | 1.6 | 0.00 | 0.00 | 0.36 | 92 | 1013.9 |
| 20260502150419 | 12 | 48 | 0.0 | 0.0 | 0.00 | 0.00 | 0.36 | 92 | 1013.7 |
| 20260502130419 | 11 | 33 | 0.0 | 1.6 | 0.00 | 0.00 | 0.18 | 93 | 1013.1 |
| 20260502123418 | 11 | 0 | 0.0 | 0.0 | 0.00 | 0.00 | 0.13 | 93 | 1013.1 |
| 20260502122917 | 11 | 0 | 0.0 | 0.0 | 0.00 | 0.00 | 0.13 | 94 | 1013.0 |
| 20260502122418 | 11 | 0 | 0.0 | 0.0 | 0.00 | 0.00 | 0.13 | 94 | 1012.8 |
| 20260502121917 | 11 | 0 | 0.0 | 0.0 | 0.00 | 0.00 | 0.10 | 94 | 1012.6 |
| 20260502121418 | 11 | 0 | 0.0 | 0.0 | 0.00 | 0.00 | 0.10 | 94 | 1012.6 |
| 20260502120918 | 11 | 0 | 0.0 | 0.0 | 0.00 | 0.00 | 0.10 | 94 | 1012.6 |
| 20260502120417 | 11 | 0 | 0.0 | 0.0 | 0.00 | 0.00 | 0.08 | 94 | 1012.6 |
| 20260502115917 | 11 | 0 | 0.0 | 0.0 | 0.00 | 0.00 | 0.10 | 94 | 1012.6 |
| 20260502115417 | 11 | 0 | 0.0 | 0.0 | 0.00 | 0.00 | 0.10 | 94 | 1012.7 |
| 20260502114917 | 11 | 0 | 0.0 | 0.0 | 0.00 | 0.00 | 0.08 | 94 | 1012.8 |
| 20260502114420 | 11 | 0 | 0.0 | 0.0 | 0.00 | 0.00 | 0.08 | 94 | 1012.8 |
| 20260502113921 | 11 | 0 | 0.0 | 0.0 | 0.00 | 0.00 | 0.08 | 93 | 1012.7 |
| 20260502113417 | 11 | 0 | 0.0 | 0.0 | 0.00 | 0.00 | 0.08 | 93 | 1012.8 |
| 20260502112917 | 11 | 0 | 0.0 | 0.0 | 0.00 | 0.00 | 0.08 | 93 | 1012.7 |
| 20260502112418 | 11 | 0 | 0.0 | 0.0 | 0.00 | 0.00 | 0.08 | 93 | 1012.7 |
| 20260502111917 | 11 | 0 | 0.0 | 0.0 | 0.00 | 0.00 | 0.05 | 93 | 1012.7 |
| 20260502111418 | 11 | 52 | 1.6 | 1.6 | 0.00 | 0.00 | 0.05 | 93 | 1012.8 |
| 20260502110918 | 11 | 0 | 0.0 | 0.0 | 0.00 | 0.00 | 0.05 | 93 | 1013.0 |
| 20260502110418 | 11 | 0 | 0.0 | 0.0 | 0.00 | 0.00 | 0.03 | 93 | 1013.0 |
| 20260502105917 | 11 | 0 | 0.0 | 0.0 | 0.00 | 0.00 | 0.03 | 93 | 1013.0 |
| 20260502105417 | 11 | 0 | 0.0 | 0.0 | 0.00 | 0.00 | 0.03 | 92 | 1013.0 |
| 20260502104918 | 11 | 0 | 0.0 | 0.0 | 0.00 | 0.00 | 0.00 | 92 | 1013.0 |
| 20260502104417 | 11 | 0 | 0.0 | 0.0 | 0.00 | 0.00 | 0.00 | 92 | 1013.0 |
| 20260502103917 | 11 | 0 | 0.0 | 0.0 | 0.00 | 0.00 | 0.00 | 92 | 1013.0 |
| 20260502103418 | 11 | 0 | 0.0 | 0.0 | 0.00 | 0.00 | 0.00 | 92 | 1013.0 |
| 20260502102918 | 11 | 43 | 0.0 | 1.6 | 0.00 | 0.00 | 0.00 | 92 | 1013.0 |
| 20260502102417 | 11 | 0 | 0.0 | 0.0 | 0.00 | 0.00 | 0.00 | 91 | 1013.0 |
| 20260502101918 | 11 | 0 | 0.0 | 0.0 | 0.00 | 0.00 | 0.00 | 91 | 1013.0 |
| 20260502101417 | 11 | 0 | 0.0 | 0.0 | 0.00 | 0.00 | 0.00 | 91 | 1013.0 |
| 20260502100918 | 11 | 55 | 0.0 | 1.6 | 0.00 | 0.00 | 0.00 | 91 | 1012.9 |
| 20260502100417 | 11 | 0 | 0.0 | 0.0 | 0.00 | 0.00 | 0.00 | 91 | 1013.1 |
| 20260502091417 | 11 | 0 | 0.0 | 0.0 | 0.00 | 0.00 | 0.00 | 92 | 1013.1 |
| 20260502090918 | 11 | 0 | 0.0 | 0.0 | 0.00 | 0.00 | 0.00 | 93 | 1013.1 |
| 20260502090419 | 11 | 0 | 0.0 | 0.0 | 0.00 | 0.00 | 0.00 | 93 | 1012.9 |
| 20260502071417 | 11 | 0 | 0.0 | 0.0 | 0.00 | 0.00 | 0.00 | 95 | 1011.9 |
| 20260502070917 | 11 | 0 | 0.0 | 0.0 | 0.00 | 0.00 | 0.00 | 95 | 1011.8 |
| 20260502070419 | 11 | 0 | 0.0 | 0.0 | 0.00 | 0.00 | 0.00 | 95 | 1011.9 |
| 20260502065918 | 11 | 0 | 0.0 | 0.0 | 0.00 | 0.00 | 0.00 | 95 | 1012.0 |
| 20260502065417 | 11 | 0 | 0.0 | 0.0 | 0.00 | 0.00 | 0.00 | 95 | 1012.0 |
| 20260502064919 | 11 | 0 | 0.0 | 0.0 | 0.00 | 0.00 | 0.00 | 95 | 1012.0 |
| 20260502064418 | 11 | 0 | 0.0 | 0.0 | 0.00 | 0.00 | 0.00 | 95 | 1012.1 |
| 20260502063917 | 11 | 0 | 0.0 | 0.0 | 0.00 | 0.00 | 0.00 | 95 | 1012.1 |
| 20260502063417 | 11 | 0 | 0.0 | 0.0 | 0.00 | 0.00 | 0.00 | 95 | 1012.2 |